sat.trackr.live / text

‹ back to catalog

STARLINK-36455

NORAD 67418 · 2026-005Q

PAYLOAD ACTIVE UNKNOWN

§ Identity

Operator
Country
US
Launch date
2026-01-12
Launch site
AFETR
Launch vehicle
Mass (kg)
RCS (m²)

Purposes: comms

External: N2YO · Heavens-Above · Gunter

§ Orbital elements

Epoch: 2026-05-25T01:00:55.871712Z

Period
94.27 min
Inclination
42.9993°
Eccentricity
0.0000154
Mean motion
15.27585651 rev/d
Perigee alt
482.9 km
Apogee alt
483.1 km
Semi-major
6,861.2 km
B*
4.6683e-4
RAAN
166.7790°
Arg perigee
237.5272°
Mean anomaly
122.5564°
Rev number
2,037

§ Raw data

STARLINK-364551 67418U 26005Q   26145.04231333  .00012609  00000+0  46683-3 0  99932 67418  42.9993 166.7790 0000154 237.5272 122.5564 15.27585651 20370

JSON: /api/v1/satellites/67418 · /tle

For live sub-satellite position, see the globe view (requires WebGL).

§ Visibility from observer

Set your observer location to see the next 7 days of passes ≥ 10°. The values pass through the URL so the page stays shareable.

No JS? Fill the form by hand. The geolocation button needs JavaScript.